Location: Bremen
(53.0796°N, 8.8241°E)
Time: 15:10:00
(UTC+01:00)

ISS - Pass Details

Date: 11 January 2018
Orbit: 402 x 407 km, 51.6° (Epoch: 21 January)

Event Time Altitude Azimuth Distance (km) Brightness Sun altitude
Exits shadow 05:41:03 27° 129° (SE) 828 -1.8 -24.9°
Drops below altitude 10° 05:42:44 10° 117° (ESE) 1,466 -0.1 -24.7°
Sets 05:44:51 0° 113° (ESE) 2,326 1.2 -24.3°
